Location: Im Fang
(46.6019°N, 7.2397°E)
Time: 23:19:19
(UTC+00:00)

Envisat - Pass Details

Date: 06 March 2021
Orbit: 764 x 766 km, 98.1° (Epoch: 22 April)

Event Time Altitude Azimuth Distance (km) Brightness Sun altitude
Rises 17:44:30 0° 215° (SW) 3,222 6.8 -4.3°
Reaches altitude 10° 17:47:55 10° 240° (WSW) 2,303 6.7 -4.9°
Maximum altitude 17:50:37 14° 272° (W) 2,019 6.8 -5.3°
Drops below altitude 10° 17:53:19 10° 305° (NW) 2,312 6.4 -5.8°
Sets 17:56:47 0° 329° (NNW) 3,245 6.7 -6.4°
